When you browse on this site, cookies collect data to enhance your experience and personalize the content and advertising you see.
Visit our Privacy Policy to learn more. By continuing to use the site, you agree to this use of cookies and data.
EN

Hourly Weather Ruse

Today, 8 July, Wednesday

Time Temperature Precipitation Wind Pressure Humidity
00:00 +19°C° 0 mm 6 mps 754 mmHg 63%
01:00 +17°C° 0 mm 5 mps 754 mmHg 66%
02:00 +18°C° 0 mm 4 mps 754 mmHg 69%
03:00 +17°C° 0 mm 4 mps 755 mmHg 72%
04:00 +16°C° 0 mm 3 mps 755 mmHg 74%
05:00 +16°C° 0 mm 2 mps 755 mmHg 77%
06:00 +16°C° 0 mm 2 mps 756 mmHg 74%
07:00 +17°C° 0 mm 2 mps 756 mmHg 72%
08:00 +18°C° 0 mm 2 mps 756 mmHg 73%
09:00 +19°C° 0 mm 2 mps 757 mmHg 69%
10:00 +20°C° 0 mm 2 mps 757 mmHg 65%
11:00 +21°C° 0 mm 2 mps 757 mmHg 61%
12:00 +23°C° 0 mm 2 mps 757 mmHg 57%
13:00 +24°C° 0 mm 2 mps 757 mmHg 54%
14:00 +26°C° 0 mm 2 mps 756 mmHg 51%
15:00 +26°C° 0 mm 2 mps 756 mmHg 50%
16:00 +26°C° 0 mm 1 mps 756 mmHg 50%
17:00 +27°C° 0 mm 1 mps 756 mmHg 49%
18:00 +25°C° 0 mm 1 mps 756 mmHg 54%
19:00 +24°C° 0 mm 1 mps 756 mmHg 59%
20:00 +21°C° 0 mm 2 mps 756 mmHg 64%
21:00 +21°C° 0 mm 2 mps 757 mmHg 67%
22:00 +20°C° 0 mm 2 mps 757 mmHg 71%
23:00 +19°C° 0 mm 2 mps 757 mmHg 74%

Tomorrow, 9 July, Thursday

Time Temperature Precipitation Wind Pressure Humidity
00:00 +18°C° 0 mm 2 mps 758 mmHg 76%
01:00 +19°C° 0 mm 1 mps 758 mmHg 78%
02:00 +18°C° 0 mm 1 mps 758 mmHg 80%
03:00 +18°C° 0 mm 1 mps 758 mmHg 81%
04:00 +18°C° 0 mm 1 mps 758 mmHg 82%
05:00 +16°C° 0 mm 1 mps 758 mmHg 84%
06:00 +19°C° 0 mm 1 mps 758 mmHg 77%
07:00 +21°C° 0 mm 1 mps 758 mmHg 70%
08:00 +23°C° 0 mm 1 mps 758 mmHg 63%
09:00 +25°C° 0 mm 1 mps 758 mmHg 57%
10:00 +25°C° 0 mm 0 mps 758 mmHg 52%
11:00 +27°C° 0 mm 0 mps 758 mmHg 46%
12:00 +27°C° 0 mm 0 mps 758 mmHg 43%
13:00 +30°C° 0 mm 1 mps 758 mmHg 40%
14:00 +31°C° 0 mm 1 mps 757 mmHg 37%
15:00 +31°C° 0 mm 1 mps 757 mmHg 38%
16:00 +31°C° 0 mm 1 mps 757 mmHg 38%
17:00 +30°C° 0 mm 1 mps 757 mmHg 38%
18:00 +29°C° 0 mm 1 mps 757 mmHg 44%
19:00 +27°C° 0 mm 1 mps 757 mmHg 50%
20:00 +25°C° 0 mm 1 mps 757 mmHg 55%
21:00 +24°C° 0 mm 1 mps 757 mmHg 58%
22:00 +23°C° 0 mm 1 mps 758 mmHg 60%
23:00 +22°C° 0 mm 1 mps 758 mmHg 62%

Day after tomorrow, 10 July, Friday

Time Temperature Precipitation Wind Pressure Humidity
00:00 +22°C° 0 mm 1 mps 758 mmHg 64%
01:00 +21°C° 0 mm 1 mps 758 mmHg 65%
02:00 +21°C° 0 mm 1 mps 758 mmHg 67%
03:00 +20°C° 0 mm 1 mps 758 mmHg 68%
04:00 +20°C° 0 mm 1 mps 758 mmHg 70%
05:00 +19°C° 0 mm 1 mps 758 mmHg 71%
06:00 +22°C° 0 mm 1 mps 758 mmHg 66%
07:00 +24°C° 0 mm 1 mps 758 mmHg 60%
08:00 +26°C° 0 mm 1 mps 758 mmHg 55%
09:00 +27°C° 0 mm 2 mps 758 mmHg 51%
10:00 +29°C° 0 mm 2 mps 758 mmHg 47%
11:00 +30°C° 0 mm 3 mps 758 mmHg 43%
12:00 +31°C° 0 mm 3 mps 758 mmHg 41%
13:00 +33°C° 0 mm 3 mps 757 mmHg 40%
14:00 +33°C° 0 mm 4 mps 757 mmHg 39%
15:00 +33°C° 0 mm 4 mps 757 mmHg 40%
16:00 +33°C° 0 mm 4 mps 757 mmHg 41%
17:00 +32°C° 0 mm 4 mps 757 mmHg 43%
18:00 +29°C° 0 mm 4 mps 757 mmHg 48%
19:00 +27°C° 0 mm 3 mps 757 mmHg 54%
20:00 +25°C° 0 mm 3 mps 757 mmHg 59%
21:00 +24°C° 0 mm 3 mps 757 mmHg 62%
22:00 +22°C° 0 mm 3 mps 758 mmHg 64%
23:00 +21°C° 0 mm 3 mps 758 mmHg 67%

11 July, Saturday

Time Temperature Precipitation Wind Pressure Humidity
00:00 +20°C° 0 mm 3 mps 758 mmHg 70%
01:00 +20°C° 0 mm 3 mps 757 mmHg 72%
02:00 +19°C° 0 mm 3 mps 757 mmHg 75%
03:00 +19°C° 0 mm 2 mps 757 mmHg 77%
04:00 +18°C° 0 mm 2 mps 757 mmHg 80%
05:00 +18°C° 0 mm 2 mps 757 mmHg 82%
06:00 +20°C° 0 mm 3 mps 757 mmHg 75%
07:00 +22°C° 0 mm 3 mps 757 mmHg 69%
08:00 +25°C° 0 mm 3 mps 757 mmHg 62%
09:00 +27°C° 0 mm 4 mps 757 mmHg 56%
10:00 +29°C° 0 mm 4 mps 757 mmHg 51%
11:00 +30°C° 0 mm 5 mps 757 mmHg 45%
12:00 +32°C° 0 mm 5 mps 756 mmHg 44%
13:00 +33°C° 0 mm 5 mps 756 mmHg 42%
14:00 +34°C° 0 mm 5 mps 755 mmHg 41%
15:00 +33°C° 0 mm 5 mps 755 mmHg 42%
16:00 +33°C° 0 mm 5 mps 755 mmHg 44%
17:00 +32°C° 0 mm 5 mps 754 mmHg 45%
18:00 +30°C° 0 mm 4 mps 755 mmHg 51%
19:00 +28°C° 0 mm 4 mps 755 mmHg 58%
20:00 +26°C° 0 mm 3 mps 755 mmHg 64%
21:00 +25°C° 0 mm 3 mps 755 mmHg 66%
22:00 +24°C° 0 mm 3 mps 755 mmHg 69%
23:00 +22°C° 0 mm 3 mps 755 mmHg 72%

12 July, Sunday

Time Temperature Precipitation Wind Pressure Humidity
00:00 +21°C° 0 mm 2 mps 755 mmHg 74%
01:00 +21°C° 0 mm 2 mps 755 mmHg 76%
02:00 +21°C° 0 mm 1 mps 755 mmHg 79%
03:00 +21°C° 0 mm 1 mps 754 mmHg 80%
04:00 +20°C° 0 mm 1 mps 754 mmHg 82%
05:00 +18°C° 0 mm 0 mps 754 mmHg 84%
06:00 +20°C° 0 mm 0 mps 755 mmHg 76%
07:00 +22°C° 0 mm 0 mps 755 mmHg 68%
08:00 +24°C° 0 mm 0 mps 755 mmHg 61%
09:00 +28°C° 0 mm 1 mps 755 mmHg 56%
10:00 +29°C° 0 mm 2 mps 755 mmHg 51%
11:00 +31°C° 0 mm 2 mps 755 mmHg 46%
12:00 +31°C° 0 mm 2 mps 754 mmHg 47%
13:00 +31°C° 0 mm 3 mps 754 mmHg 48%
14:00 +31°C° 0 mm 3 mps 754 mmHg 49%
15:00 +31°C° 0 mm 3 mps 754 mmHg 50%
16:00 +31°C° 0 mm 3 mps 754 mmHg 51%
17:00 +30°C° 0 mm 3 mps 754 mmHg 52%
18:00 +29°C° 0.1 mm 3 mps 754 mmHg 54%
19:00 +28°C° 0.1 mm 4 mps 754 mmHg 57%
20:00 +26°C° 0.1 mm 4 mps 754 mmHg 59%
21:00 +25°C° 0.2 mm 4 mps 755 mmHg 64%
22:00 +22°C° 0.2 mm 3 mps 755 mmHg 68%
23:00 +21°C° 0.2 mm 2 mps 756 mmHg 73%

13 July, Monday

Time Temperature Precipitation Wind Pressure Humidity
00:00 +20°C° 0 mm 2 mps 756 mmHg 77%
01:00 +19°C° 0 mm 2 mps 756 mmHg 80%
02:00 +18°C° 0 mm 2 mps 756 mmHg 84%
03:00 +18°C° 0 mm 2 mps 756 mmHg 85%
04:00 +17°C° 0 mm 3 mps 756 mmHg 85%
05:00 +17°C° 0 mm 3 mps 756 mmHg 86%
06:00 +17°C° 0 mm 3 mps 756 mmHg 82%
07:00 +17°C° 0 mm 4 mps 757 mmHg 79%
08:00 +18°C° 0 mm 4 mps 757 mmHg 75%
09:00 +18°C° 0 mm 4 mps 757 mmHg 71%
10:00 +18°C° 0 mm 4 mps 757 mmHg 68%
11:00 +19°C° 0 mm 4 mps 757 mmHg 64%
12:00 +19°C° 0 mm 4 mps 757 mmHg 60%
13:00 +20°C° 0 mm 4 mps 757 mmHg 57%
14:00 +21°C° 0 mm 3 mps 757 mmHg 53%
15:00 +21°C° 0 mm 3 mps 757 mmHg 53%
16:00 +21°C° 0 mm 3 mps 757 mmHg 54%
17:00 +21°C° 0 mm 2 mps 757 mmHg 54%
18:00 +20°C° 0 mm 2 mps 757 mmHg 58%
19:00 +19°C° 0 mm 2 mps 757 mmHg 62%
20:00 +20°C° 0 mm 1 mps 757 mmHg 65%
21:00 +19°C° 0 mm 1 mps 757 mmHg 68%
22:00 +19°C° 0 mm 1 mps 757 mmHg 70%
23:00 +19°C° 0 mm 1 mps 758 mmHg 72%
Show more